When you browse on this site, cookies collect data to enhance your experience and personalize the content and advertising you see.
Visit our Privacy Policy to learn more. By continuing to use the site, you agree to this use of cookies and data.
  • In Hungary
  • List of Countries
  • For 7 days
  • Water Temperature
  • Satellite Maps
  • Weather Map
  • News
  • Weather Widgets
  • user-avatar
    Login

    Hourly Weather Borowiec

    Today, 21 May, Tuesday

    Time Temperature Precipitation Wind Pressure Humidity
    00:00 +14°C° 0 mm 2 mps 746 mmHg 88%
    01:00 +14°C° 0 mm 2 mps 746 mmHg 89%
    02:00 +13°C° 0 mm 2 mps 746 mmHg 91%
    03:00 +13°C° 0 mm 2 mps 746 mmHg 92%
    04:00 +12°C° 0 mm 2 mps 747 mmHg 93%
    05:00 +14°C° 0 mm 2 mps 747 mmHg 87%
    06:00 +16°C° 0 mm 2 mps 747 mmHg 81%
    07:00 +17°C° 0 mm 2 mps 747 mmHg 74%
    08:00 +19°C° 0 mm 2 mps 747 mmHg 69%
    09:00 +20°C° 0 mm 2 mps 747 mmHg 64%
    10:00 +21°C° 0 mm 2 mps 747 mmHg 59%
    11:00 +23°C° 0 mm 2 mps 747 mmHg 56%
    12:00 +24°C° 0 mm 2 mps 747 mmHg 53%
    13:00 +24°C° 0 mm 1 mps 747 mmHg 51%
    14:00 +25°C° 0 mm 1 mps 747 mmHg 50%
    15:00 +25°C° 0 mm 1 mps 746 mmHg 48%
    16:00 +25°C° 0 mm 1 mps 746 mmHg 47%
    17:00 +24°C° 0.1 mm 1 mps 746 mmHg 55%
    18:00 +23°C° 0.1 mm 1 mps 746 mmHg 63%
    19:00 +21°C° 0.1 mm 1 mps 746 mmHg 70%
    20:00 +19°C° 0.3 mm 2 mps 746 mmHg 76%
    21:00 +18°C° 0.3 mm 2 mps 747 mmHg 83%
    22:00 +17°C° 0.3 mm 2 mps 747 mmHg 89%
    23:00 +16°C° 0.5 mm 3 mps 747 mmHg 91%

    Tomorrow, 22 May, Wednesday

    Time Temperature Precipitation Wind Pressure Humidity
    00:00 +16°C° 0.5 mm 3 mps 747 mmHg 93%
    01:00 +16°C° 0.5 mm 3 mps 747 mmHg 94%
    02:00 +15°C° 1.3 mm 4 mps 747 mmHg 95%
    03:00 +15°C° 1.3 mm 4 mps 747 mmHg 95%
    04:00 +15°C° 1.3 mm 5 mps 747 mmHg 96%
    05:00 +15°C° 2 mm 5 mps 748 mmHg 96%
    06:00 +15°C° 2 mm 5 mps 748 mmHg 95%
    07:00 +15°C° 2 mm 6 mps 748 mmHg 95%
    08:00 +15°C° 1 mm 6 mps 748 mmHg 95%
    09:00 +15°C° 1 mm 5 mps 749 mmHg 95%
    10:00 +15°C° 1 mm 5 mps 749 mmHg 95%
    11:00 +15°C° 0.2 mm 6 mps 749 mmHg 94%
    12:00 +15°C° 0.2 mm 6 mps 749 mmHg 93%
    13:00 +16°C° 0.2 mm 6 mps 750 mmHg 92%
    14:00 +15°C° 0.1 mm 6 mps 750 mmHg 92%
    15:00 +15°C° 0.1 mm 7 mps 750 mmHg 92%
    16:00 +14°C° 0.1 mm 7 mps 751 mmHg 91%
    17:00 +14°C° 0.1 mm 7 mps 751 mmHg 92%
    18:00 +13°C° 0.1 mm 6 mps 751 mmHg 92%
    19:00 +13°C° 0.1 mm 6 mps 752 mmHg 92%
    20:00 +13°C° 0.1 mm 6 mps 752 mmHg 93%
    21:00 +13°C° 0.1 mm 6 mps 753 mmHg 93%
    22:00 +12°C° 0.1 mm 5 mps 753 mmHg 93%
    23:00 +11°C° 0.1 mm 6 mps 753 mmHg 93%

    Day after tomorrow, 23 May, Thursday

    Time Temperature Precipitation Wind Pressure Humidity
    00:00 +11°C° 0.1 mm 6 mps 754 mmHg 93%
    01:00 +11°C° 0.1 mm 6 mps 754 mmHg 93%
    02:00 +10°C° 0.1 mm 6 mps 754 mmHg 93%
    03:00 +10°C° 0.1 mm 6 mps 754 mmHg 92%
    04:00 +10°C° 0.1 mm 6 mps 755 mmHg 92%
    05:00 +9°C° 0.1 mm 6 mps 755 mmHg 92%
    06:00 +9°C° 0.1 mm 5 mps 755 mmHg 92%
    07:00 +9°C° 0.1 mm 5 mps 756 mmHg 91%
    08:00 +10°C° 0 mm 5 mps 756 mmHg 88%
    09:00 +10°C° 0 mm 5 mps 756 mmHg 85%
    10:00 +12°C° 0 mm 4 mps 757 mmHg 81%
    11:00 +14°C° 0 mm 4 mps 757 mmHg 70%
    12:00 +16°C° 0 mm 5 mps 757 mmHg 59%
    13:00 +19°C° 0 mm 5 mps 757 mmHg 48%
    14:00 +19°C° 0 mm 5 mps 756 mmHg 47%
    15:00 +20°C° 0 mm 5 mps 756 mmHg 46%
    16:00 +20°C° 0 mm 5 mps 756 mmHg 46%
    17:00 +18°C° 0 mm 4 mps 756 mmHg 52%
    18:00 +17°C° 0 mm 3 mps 756 mmHg 58%
    19:00 +16°C° 0 mm 2 mps 756 mmHg 64%
    20:00 +14°C° 0 mm 2 mps 756 mmHg 69%
    21:00 +13°C° 0 mm 2 mps 756 mmHg 73%
    22:00 +10°C° 0 mm 2 mps 757 mmHg 78%
    23:00 +11°C° 0 mm 1 mps 757 mmHg 81%

    24 May, Friday

    Time Temperature Precipitation Wind Pressure Humidity
    00:00 +10°C° 0 mm 1 mps 757 mmHg 84%
    01:00 +9°C° 0 mm 1 mps 757 mmHg 86%
    02:00 +9°C° 0 mm 1 mps 757 mmHg 85%
    03:00 +9°C° 0 mm 1 mps 756 mmHg 85%
    04:00 +9°C° 0 mm 1 mps 756 mmHg 84%
    05:00 +11°C° 0 mm 1 mps 756 mmHg 78%
    06:00 +13°C° 0 mm 2 mps 756 mmHg 73%
    07:00 +14°C° 0 mm 2 mps 756 mmHg 68%
    08:00 +16°C° 0 mm 2 mps 756 mmHg 63%
    09:00 +18°C° 0 mm 2 mps 755 mmHg 58%
    10:00 +19°C° 0 mm 2 mps 755 mmHg 53%
    11:00 +20°C° 0 mm 2 mps 755 mmHg 52%
    12:00 +21°C° 0 mm 2 mps 754 mmHg 50%
    13:00 +21°C° 0 mm 2 mps 754 mmHg 49%
    14:00 +21°C° 0 mm 2 mps 754 mmHg 49%
    15:00 +21°C° 0 mm 2 mps 753 mmHg 49%
    16:00 +22°C° 0 mm 3 mps 753 mmHg 49%
    17:00 +20°C° 0 mm 2 mps 753 mmHg 55%
    18:00 +19°C° 0 mm 2 mps 752 mmHg 60%
    19:00 +18°C° 0 mm 2 mps 752 mmHg 65%
    20:00 +17°C° 0 mm 2 mps 752 mmHg 69%
    21:00 +16°C° 0 mm 2 mps 752 mmHg 72%
    22:00 +15°C° 0 mm 2 mps 752 mmHg 76%
    23:00 +14°C° 0 mm 2 mps 752 mmHg 80%

    25 May, Saturday

    Time Temperature Precipitation Wind Pressure Humidity
    00:00 +13°C° 0 mm 3 mps 752 mmHg 84%
    01:00 +12°C° 0 mm 3 mps 752 mmHg 89%
    02:00 +12°C° 0 mm 3 mps 752 mmHg 91%
    03:00 +11°C° 0 mm 3 mps 752 mmHg 93%
    04:00 +10°C° 0 mm 3 mps 752 mmHg 96%
    05:00 +11°C° 0 mm 4 mps 753 mmHg 89%
    06:00 +12°C° 0 mm 4 mps 753 mmHg 83%
    07:00 +12°C° 0 mm 5 mps 753 mmHg 76%
    08:00 +13°C° 0 mm 5 mps 754 mmHg 74%
    09:00 +13°C° 0 mm 5 mps 754 mmHg 71%
    10:00 +13°C° 0 mm 5 mps 754 mmHg 69%
    11:00 +14°C° 0 mm 5 mps 754 mmHg 67%
    12:00 +14°C° 0 mm 5 mps 754 mmHg 65%
    13:00 +15°C° 0 mm 5 mps 754 mmHg 63%
    14:00 +15°C° 0 mm 5 mps 753 mmHg 63%
    15:00 +15°C° 0 mm 5 mps 753 mmHg 64%
    16:00 +15°C° 0 mm 6 mps 753 mmHg 64%
    17:00 +14°C° 0 mm 5 mps 753 mmHg 68%
    18:00 +13°C° 0 mm 5 mps 753 mmHg 71%
    19:00 +12°C° 0 mm 4 mps 753 mmHg 75%
    20:00 +12°C° 0 mm 4 mps 753 mmHg 78%
    21:00 +11°C° 0 mm 4 mps 753 mmHg 81%
    22:00 +11°C° 0 mm 4 mps 753 mmHg 84%
    23:00 +11°C° 0.1 mm 4 mps 753 mmHg 85%

    26 May, Sunday

    Time Temperature Precipitation Wind Pressure Humidity
    00:00 +11°C° 0.1 mm 4 mps 753 mmHg 86%
    01:00 +10°C° 0.1 mm 5 mps 752 mmHg 87%
    02:00 +9°C° 0 mm 5 mps 752 mmHg 87%
    03:00 +8°C° 0 mm 5 mps 752 mmHg 88%
    04:00 +8°C° 0 mm 5 mps 752 mmHg 88%
    05:00 +8°C° 0 mm 5 mps 752 mmHg 85%
    06:00 +8°C° 0 mm 5 mps 752 mmHg 83%
    07:00 +8°C° 0 mm 6 mps 752 mmHg 81%
    08:00 +8°C° 0 mm 6 mps 752 mmHg 79%
    09:00 +8°C° 0 mm 6 mps 752 mmHg 76%
    10:00 +9°C° 0 mm 7 mps 752 mmHg 74%
    11:00 +9°C° 0 mm 7 mps 752 mmHg 71%
    12:00 +10°C° 0 mm 7 mps 752 mmHg 69%
    13:00 +11°C° 0 mm 7 mps 752 mmHg 66%
    14:00 +11°C° 0 mm 7 mps 752 mmHg 67%
    15:00 +11°C° 0 mm 7 mps 752 mmHg 68%
    16:00 +11°C° 0 mm 6 mps 752 mmHg 69%
    17:00 +10°C° 0 mm 6 mps 751 mmHg 70%
    18:00 +10°C° 0 mm 5 mps 751 mmHg 71%
    19:00 +10°C° 0 mm 5 mps 751 mmHg 71%
    20:00 +10°C° 0 mm 4 mps 752 mmHg 72%
    21:00 +10°C° 0 mm 4 mps 752 mmHg 73%
    22:00 +8°C° 0 mm 4 mps 752 mmHg 73%
    23:00 +8°C° 0 mm 4 mps 752 mmHg 72%
    Show more